SCP
0 0 0 0 0 0 0 0 0 0 0 0 0 0 0 0 0 0 0 0 0 0 0 0 0 0 0 0 0 0 0 0 0 0 0 0 0 0 0 0 0 0 0
0 0 0 0 0 0 0 0 0 0 0 0 0 0 0 0 0 0 0 0 0 0 0 0 0 0 0 0 0 0 0 0 0 0 0 0 0 0 0 0 0 0 0
0 0 0 0 0 0 0 0 0 0 0 0 0 0 0 0 0 0 0 0 0 0 0 0 0 0 0 0 0 0 0 0 0 0 0 0 0 0 0 0 0 0 0
0 0 0 0 0 0 0 0 0 0 0 0 0 0 0 0 0 0 0 0 0 0 0 0 0 0 0 0 0 0 0 0 0 0 0 0 0 0 0 0 0 0 0
0 -0 -0 -0 0 0 0 0 0 0 0 0 0 0 0 0 0 0 0 0 0 0 0 0 0 0 0 0 0 0 0 0 0 0 0 0 0 0 0 0 0 0 0
0 -0 -0 -0 0 0 0 0 0 0 0 0 0 0 0 0 0 0 0 0 0 0 0 0 0 0 0 0 0 0 0 0 0 0 0 0 0 0 0 0 0 0 0
0 -0 -0 -0 0 0 0 0 0 0 0 0 0 0 0 0 0 0 0 0 0 0 0 0 0 0 0 0 0 0 0 0 0 0 0 0 0 0 0 0 0 0 0
0 0 -0 -0 0 0 0 0 0 0 0 0 0 0 0 0 0 0 0 0 0 0 0 0 0 0 0 0 0 0 0 0 0 0 0 0 0 0 0 0 0 0 0
0 -0 -0 -0 0 0 0 0 0 0 0 0 0 0 0 0 0 0 0 0 0 0 0 0 0 0 0 0 0 0 0 0 0 0 0 0 0 0 0 0 0 0 0
-0 -0 -0 -0 0 0 0 0 0 0 0 0 0 0 0 0 0 0 0 0 0 0 0 0 0 0 0 0 0 0 0 0 0 0 0 0 0 0 0 0 0 0 0
0 -0 0 0 0 0 0 0 0 0 0 0 0 0 0 0 0 0 0 0 0 0 0 0 0 0 0 0 0 0 0 0 0 0 0 0 0 0 0 0 0 0 0
0 0 0 0 0 0 0 0 0 0 0 0 0 0 0 0 0 0 0 0 0 0 0 0 0 0 0 0 0 0 0 0 0 0 0 0 0 0 0 0 0 0 0
0 0 0 0 0 0 0 0 0 0 0 0 0 0 0 0 0 0 0 0 0 0 0 0 0 0 0 0 0 0 0 0 0 0 0 0 0 0 0 0 0 0 0
0 0 0 0 0 0 0 0 0 0 0 0 -0 0 0 0 0 0 0 0 0 0 0 0 0 0 0 0 0 0 0 0 0 0 0 0 0 0 0 0 0 0 0
0 0 0 0 0 0 0 0 0 0 0 -0 -0 0 0 0 0 0 0 0 0 0 0 0 0 0 0 0 0 0 0 0 0 0 0 0 0 0 0 0 0 0 0
0 0 0 0 0 0 0 0 0 0 0 -0 -0 0 0 0 0 0 0 0 0 0 0 0 0 0 0 0 0 0 0 0 0 0 0 0 0 0 0 0 0 0 0
0 0 0 -0 0 0 0 0 0 0 -0 -0 -0 0 0 0 0 0 0 0 0 0 0 0 0 0 0 0 0 0 0 0 0 0 0 0 0 0 0 0 0 0 0
0 0 0 0 0 0 0 0 0 0 0 0 0 0 0 0 0 0 0 0 0 0 0 0 0 0 0 0 0 0 0 0 0 0 0 0 0 0 0 0 0 0 0
0 0 0 0 0 0 0 0 0 0 0 0 0 0 0 0 0 0 0 0 0 0 0 0 0 0 0 0 0 0 0 0 0 0 0 0 0 0 0 0 0 0 0
0 0 0 0 0 0 0 0 0 0 0 0 0 0 0 0 0 0 0 0 0 0 0 0 0 0 0 0 0 0 0 0 0 0 0 0 0 0 0 0 0 0 0
0 0 0 0 0 0 0 0 0 0 0 0 0 0 0 0 0 0 0 0 0 0 0 0 0 0 0 0 0 0 0 0 0 0 0 0 0 0 0 0 0 0 0
0 0 0 0 0 0 0 0 0 0 0 0 0 0 0 0 0 0 0 0 0 0 0 0 0 0 0 0 0 0 0 0 0 0 0 0 0 0 0 0 0 0 0
0 0 0 0 0 0 0 0 0 0 0 0 0 0 0 0 0 0 0 0 0 0 0 0 0 0 0 0 0 0 0 0 0 0 0 0 0 0 0 0 0 0 0
0 0 0 0 0 0 0 0 0 0 0 0 0 0 0 0 0 0 0 0 0 0 0 0 0 0 0 0 0 0 0 0 0 0 0 0 0 0 0 0 0 0 0
0 0 0 0 0 0 0 0 0 0 0 0 0 0 0 0 0 0 0 0 0 0 0 0 0 0 0 0 0 0 0 0 0 0 0 0 0 0 0 0 0 0 0
0 0 0 0 0 0 0 0 0 0 0 0 0 0 0 0 0 0 0 0 0 0 0 0 0 0 0 0 0 0 0 0 0 0 0 0 0 0 0 0 0 0 0
Wind_Speed
2 2 2 3 3 3 3 3 4 4 5 5 5 5 5 5 5 4 3 8 9 9 9 9 9 9 9 10 10 9 9 8 8 7 7 8 7 6 6 6 6 6 6
2 2 3 3 3 3 3 4 4 4 4 4 6 6 6 5 5 5 5 6 11 11 11 11 12 12 11 11 11 10 9 9 8 8 8 8 8 8 7 7 6 6 6
3 3 3 3 2 3 4 4 5 4 5 5 6 6 6 6 6 6 6 5 6 11 13 13 13 12 12 12 12 11 11 10 10 9 9 8 8 8 8 7 7 7 7
3 3 3 3 2 3 3 4 4 4 5 5 5 5 5 5 7 6 6 6 6 6 9 14 14 14 13 12 12 11 11 10 9 9 9 9 8 8 8 8 8 8 8
4 4 3 2 3 3 3 4 3 3 4 5 5 5 5 5 5 6 7 7 6 6 6 9 13 14 14 13 12 12 11 10 10 10 9 9 9 9 8 8 8 8 8
4 4 3 3 3 4 3 4 4 4 3 4 6 6 5 5 5 6 6 5 6 7 7 7 7 8 14 14 13 12 11 11 10 10 10 10 10 9 9 9 8 8 8
3 4 3 3 3 3 3 4 4 5 3 2 4 4 4 5 6 5 5 5 6 6 6 7 6 5 6 11 12 12 12 11 10 10 9 9 10 10 9 9 9 8 8
3 3 4 3 3 4 4 3 3 3 2 2 2 3 2 4 4 5 4 5 5 5 6 7 6 6 5 4 8 13 12 12 10 10 10 10 10 10 10 10 10 9 9
3 4 4 3 3 3 3 2 2 3 2 2 2 3 3 1 1 3 4 4 4 4 4 4 6 6 6 5 5 9 13 12 11 11 10 10 10 10 10 10 10 10 10
3 3 3 3 3 2 3 2 2 2 3 1 2 2 2 3 2 1 2 3 4 5 5 5 5 5 6 5 6 10 12 12 12 11 11 10 10 10 10 10 10 10 10
3 3 3 3 3 2 2 2 2 2 2 2 2 1 2 2 2 2 0 2 3 3 3 4 4 4 5 5 4 8 11 11 11 11 11 10 10 10 10 10 11 11 11
2 3 3 2 2 2 2 1 1 2 1 2 2 2 2 2 2 2 2 0 1 2 3 3 3 4 4 4 6 10 11 11 11 11 11 11 10 10 10 10 11 11 11
1 2 2 2 2 2 2 2 2 2 1 2 2 1 1 1 2 3 3 1 1 2 3 2 2 3 3 4 5 9 9 10 10 10 10 10 10 10 10 10 10 10 10
1 1 2 2 2 2 3 3 2 2 2 2 2 2 1 1 1 2 3 3 1 2 3 3 2 3 3 3 5 7 5 10 10 10 9 10 10 10 9 9 9 9 10
1 2 2 2 2 3 3 3 3 2 2 2 2 2 2 1 1 1 2 2 3 1 2 3 2 3 3 2 4 3 4 7 8 8 8 9 9 9 8 8 8 9 8
2 2 2 2 2 3 3 3 3 2 3 2 2 3 2 1 2 2 2 1 2 3 1 2 2 2 3 3 4 3 3 6 8 7 7 7 7 7 7 7 7 7 7
2 2 2 3 2 3 2 3 2 2 3 2 2 2 2 2 2 1 2 2 2 2 2 1 1 2 3 3 3 3 3 3 3 6 6 6 6 6 6 6 6 6 5
2 2 3 3 2 2 2 2 2 2 2 2 1 2 2 2 2 2 2 2 1 1 2 1 1 2 2 2 2 3 3 3 2 5 5 5 5 5 5 5 5 5 4
3 2 3 3 2 2 2 2 2 2 2 1 1 2 1 2 1 1 2 2 1 2 2 2 0 1 1 2 2 2 3 3 3 3 4 4 4 4 4 4 4 4 3
4 3 3 3 3 2 2 2 2 2 2 1 1 1 1 2 2 2 2 1 2 2 2 2 1 1 1 1 1 2 2 2 2 3 4 3 4 5 5 4 4 3 3
4 3 3 2 2 2 2 3 3 2 2 1 0 0 0 1 2 2 2 2 3 2 1 1 0 0 1 1 1 1 1 2 3 2 2 2 2 2 3 4 4 4 4
3 3 3 3 2 2 4 6 4 3 2 2 1 1 1 0 1 1 2 3 5 3 3 2 1 1 2 2 1 1 1 1 3 2 1 3 1 3 3 3 5 6 5
3 3 3 3 2 3 4 5 6 4 3 2 2 1 1 0 1 0 0 1 1 2 4 4 3 3 2 3 2 1 1 2 3 2 0 3 2 3 4 4 7 7 7
3 3 3 3 2 2 4 5 5 3 2 2 2 2 2 1 1 1 1 1 1 1 2 2 3 3 3 2 3 2 2 2 3 2 1 2 3 3 4 4 7 8 7
3 3 2 3 3 2 3 4 5 3 2 2 2 2 2 2 2 2 2 1 2 3 2 2 3 3 3 2 2 2 1 0 2 3 1 2 3 3 3 4 5 7 7
3 3 2 2 2 2 3 4 5 2 2 1 1 1 2 3 3 3 3 2 2 3 2 2 2 3 2 2 3 3 3 2 2 3 2 2 2 2 4 3 3 3 4
Wind_Direction
63 53 49 50 51 57 64 63 61 59 55 50 51 54 51 46 40 32 25 42 46 47 49 50 52 52 51 52 51 55 55 53 51 49 46 44 45 48 49 50 51 48 45
85 76 67 59 57 61 68 73 70 67 58 56 51 50 51 46 42 38 33 34 42 45 46 49 50 53 53 53 52 52 53 52 50 48 47 47 47 49 53 50 51 50 48
92 90 79 67 60 68 74 73 67 64 63 60 53 47 48 45 44 42 38 35 34 42 46 49 49 49 50 50 50 48 49 49 48 49 48 48 50 52 55 55 52 52 52
91 92 87 76 71 70 74 77 69 69 62 60 55 45 43 42 42 45 43 38 35 35 37 44 46 45 45 45 46 46 47 48 49 52 52 52 52 55 58 60 59 57 54
83 94 92 84 82 78 71 85 69 77 80 74 68 53 43 40 37 43 42 39 37 34 31 35 40 40 40 41 41 43 44 46 50 54 55 53 53 55 58 60 62 60 57
79 92 91 84 86 85 73 79 82 71 78 83 78 61 47 41 39 37 35 35 36 38 36 33 28 28 34 35 36 38 39 43 48 54 56 53 52 56 58 61 61 60 58
81 89 94 86 86 90 95 96 94 83 69 70 80 58 37 40 44 35 28 34 35 34 37 35 29 24 19 25 28 34 35 39 46 53 57 57 54 54 57 61 60 59 58
75 93 98 98 96 97 91 89 96 98 67 43 90 87 41 14 20 27 27 36 31 28 34 34 29 26 19 12 16 27 29 35 44 52 57 59 59 56 56 57 56 55 54
64 81 95 101 103 108 117 110 107 111 110 46 62 118 122 150 353 359 18 28 26 30 24 23 27 21 18 14 6 19 29 32 42 51 55 59 62 61 58 57 55 53 51
58 76 90 97 103 104 116 126 113 110 120 108 58 57 97 141 134 40 351 7 23 30 21 20 16 14 14 10 13 24 31 32 41 48 53 57 60 61 60 58 56 53 51
42 66 85 94 99 105 119 112 105 103 114 133 133 112 84 69 89 126 148 335 1 6 11 9 8 8 8 7 6 26 32 34 40 43 47 51 55 58 59 58 56 53 51
32 48 73 83 96 101 113 119 112 109 105 111 117 127 138 139 149 130 142 189 333 327 347 359 6 360 1 4 15 28 33 35 39 42 45 48 49 52 55 56 54 52 50
37 31 61 77 83 94 103 105 99 96 108 114 129 133 130 141 143 136 129 135 25 325 336 345 352 353 1 4 6 21 31 37 39 42 44 47 47 47 50 51 50 49 47
149 82 90 91 86 92 95 91 85 85 88 94 98 107 104 111 125 137 143 139 95 353 349 326 329 348 351 354 1 13 19 33 37 39 43 46 46 46 45 46 46 45 46
144 109 99 88 80 84 88 91 82 75 85 79 80 88 90 82 95 107 124 138 140 137 304 306 318 326 337 346 4 11 11 26 33 36 41 43 44 45 45 45 45 44 43
125 121 112 102 92 86 85 87 84 77 83 69 77 83 74 67 78 85 107 101 116 143 194 290 289 308 327 356 13 15 11 24 27 32 35 38 39 39 40 41 41 40 38
150 144 136 122 111 100 95 95 92 94 90 70 63 83 75 79 81 72 79 84 80 106 131 302 319 335 352 359 0 4 6 8 3 16 25 31 31 32 31 32 32 31 28
163 159 143 130 124 115 111 116 117 112 113 107 88 86 71 83 77 72 82 86 91 95 126 151 330 347 351 0 0 358 358 2 352 2 8 14 22 23 20 19 20 20 20
159 153 146 151 153 143 137 140 137 130 131 139 137 128 126 109 95 87 95 97 94 88 87 123 149 335 335 356 5 357 357 346 341 352 353 358 1 359 359 0 1 4 7
163 167 167 172 168 157 156 156 144 137 133 127 131 148 158 163 175 151 127 132 118 100 86 94 100 342 323 334 10 351 342 338 327 341 344 339 341 339 335 330 330 334 331
171 168 158 164 161 162 176 169 161 156 153 141 103 276 210 185 187 172 155 161 139 121 109 107 104 356 314 319 296 287 294 316 301 316 328 316 322 321 319 314 312 313 313
156 151 166 170 174 193 182 174 162 161 164 167 189 277 296 274 229 192 172 160 156 154 162 155 184 225 257 241 233 225 231 343 307 312 329 303 314 294 287 281 289 293 298
160 159 176 173 196 219 195 180 172 158 165 181 196 218 263 166 117 121 72 92 180 184 172 167 187 221 232 225 186 212 220 224 250 277 334 286 290 286 285 285 287 285 287
164 173 184 189 201 225 196 181 173 156 164 192 204 205 208 239 191 158 131 65 312 280 237 202 209 228 229 208 183 199 215 248 278 277 179 268 285 281 294 288 288 287 284
170 177 179 182 192 233 201 178 158 151 175 217 221 200 192 214 226 161 145 196 298 301 287 248 237 254 267 241 166 118 98 344 299 284 204 241 281 295 290 282 291 295 289
174 166 167 179 192 220 202 180 162 155 178 221 248 238 221 217 224 182 174 188 245 269 285 318 311 311 300 278 220 192 191 200 255 282 244 222 269 306 305 289 296 300 295